Time,TemperatureF,DewpointF,PressureIn,WindDirection,WindDirectionDegrees,WindSpeedMPH,WindSpeedGustMPH,Humidity,HourlyPrecipIn,Conditions,Clouds,dailyrainin,SoftwareType,DateUTC
2013-06-06 00:01:00,66.9,55.6,29.98,ESE,110,0.0,0.0,67,0.00,,,0.00,LWC V2.00 B2112,2013-06-06 04:01:00,
2013-06-06 00:06:00,66.6,55.7,29.98,ESE,110,0.0,0.0,68,0.00,,,0.00,LWC V2.00 B2112,2013-06-06 04:06:00,
2013-06-06 00:11:00,66.4,55.9,29.98,ESE,110,0.0,0.0,69,0.00,,,0.00,LWC V2.00 B2112,2013-06-06 04:11:00,
2013-06-06 00:21:00,66.0,55.9,29.98,ESE,110,0.0,0.0,70,0.00,,,0.00,LWC V2.00 B2112,2013-06-06 04:21:00,
2013-06-06 00:26:00,65.8,55.7,29.98,ESE,110,0.0,0.0,70,0.00,,,0.00,LWC V2.00 B2112,2013-06-06 04:26:00,
2013-06-06 00:31:00,65.8,55.7,29.98,ESE,110,0.0,0.0,70,0.00,,,0.00,LWC V2.00 B2112,2013-06-06 04:31:00,
2013-06-06 00:36:00,65.6,55.9,29.98,ESE,110,0.0,0.0,71,0.00,,,0.00,LWC V2.00 B2112,2013-06-06 04:36:00,
2013-06-06 00:41:00,65.6,55.9,29.97,ESE,110,0.0,0.0,71,0.00,,,0.00,LWC V2.00 B2112,2013-06-06 04:41:00,
2013-06-06 00:46:00,65.5,56.2,29.97,ESE,110,0.0,0.0,72,0.00,,,0.00,LWC V2.00 B2112,2013-06-06 04:46:00,
2013-06-06 00:56:00,65.2,56.3,29.97,ESE,110,0.0,0.0,73,0.00,,,0.00,LWC V2.00 B2112,2013-06-06 04:56:00,
2013-06-06 01:01:00,65.2,56.3,29.97,ESE,110,0.0,0.0,73,0.00,,,0.00,LWC V2.00 B2112,2013-06-06 05:01:00,
2013-06-06 01:06:00,65.0,56.5,29.97,ESE,110,0.0,0.0,74,0.00,,,0.00,LWC V2.00 B2112,2013-06-06 05:06:00,
2013-06-06 01:11:00,65.0,56.5,29.97,ESE,110,0.0,0.0,74,0.00,,,0.00,LWC V2.00 B2112,2013-06-06 05:11:00,
2013-06-06 01:16:00,64.8,56.7,29.97,ESE,110,0.0,0.0,75,0.00,,,0.00,LWC V2.00 B2112,2013-06-06 05:16:00,
2013-06-06 01:21:00,64.8,56.7,29.97,ESE,110,0.0,0.0,75,0.00,,,0.00,LWC V2.00 B2112,2013-06-06 05:21:00,
2013-06-06 01:26:00,64.7,57.0,29.96,ESE,110,0.0,0.0,76,0.00,,,0.00,LWC V2.00 B2112,2013-06-06 05:26:00,
2013-06-06 01:31:00,64.5,56.8,29.96,ESE,110,0.0,0.0,76,0.00,,,0.00,LWC V2.00 B2112,2013-06-06 05:31:00,
2013-06-06 01:36:00,64.3,56.9,29.96,ESE,110,0.0,0.0,77,0.00,,,0.00,LWC V2.00 B2112,2013-06-06 05:36:00,
2013-06-06 01:41:00,64.2,57.2,29.95,ESE,110,0.0,0.0,78,0.00,,,0.00,LWC V2.00 B2112,2013-06-06 05:41:00,
2013-06-06 01:46:00,64.2,57.2,29.95,ESE,110,0.0,0.0,78,0.00,,,0.00,LWC V2.00 B2112,2013-06-06 05:46:00,
2013-06-06 01:51:00,64.2,57.5,29.95,ESE,110,0.0,0.0,79,0.00,,,0.00,LWC V2.00 B2112,2013-06-06 05:51:00,
2013-06-06 02:01:00,63.9,57.6,29.95,ESE,110,0.0,0.0,80,0.00,,,0.00,LWC V2.00 B2112,2013-06-06 06:01:00,
2013-06-06 02:11:00,63.9,57.9,29.95,ESE,110,0.0,0.0,81,0.00,,,0.00,LWC V2.00 B2112,2013-06-06 06:11:00,
2013-06-06 02:16:00,63.7,58.1,29.95,ESE,110,0.0,0.0,82,0.00,,,0.00,LWC V2.00 B2112,2013-06-06 06:16:00,
2013-06-06 02:21:00,63.7,58.1,29.95,ESE,110,0.0,0.0,82,0.00,,,0.00,LWC V2.00 B2112,2013-06-06 06:21:00,
2013-06-06 02:26:00,63.7,58.4,29.94,ESE,110,0.0,0.0,83,0.00,,,0.00,LWC V2.00 B2112,2013-06-06 06:26:00,
2013-06-06 02:31:00,63.7,58.4,29.94,ESE,110,0.0,0.0,83,0.00,,,0.00,LWC V2.00 B2112,2013-06-06 06:31:00,
2013-06-06 02:36:00,63.7,58.4,29.94,ESE,110,0.0,0.0,83,0.00,,,0.00,LWC V2.00 B2112,2013-06-06 06:36:00,
2013-06-06 02:41:00,63.7,58.4,29.93,ESE,110,0.0,0.0,83,0.00,,,0.00,LWC V2.00 B2112,2013-06-06 06:41:00,
2013-06-06 02:46:00,63.5,58.2,29.93,ESE,110,0.0,0.0,83,0.00,,,0.00,LWC V2.00 B2112,2013-06-06 06:46:00,
2013-06-06 02:51:00,63.5,58.6,29.93,ESE,110,0.0,0.0,84,0.00,,,0.00,LWC V2.00 B2112,2013-06-06 06:51:00,
2013-06-06 02:56:00,63.4,58.5,29.93,ESE,110,0.0,0.0,84,0.00,,,0.00,LWC V2.00 B2112,2013-06-06 06:56:00,
2013-06-06 03:01:00,63.4,58.8,29.93,ESE,110,0.0,0.0,85,0.00,,,0.00,LWC V2.00 B2112,2013-06-06 07:01:00,
2013-06-06 03:06:00,63.5,58.9,29.93,ESE,110,0.0,0.0,85,0.00,,,0.00,LWC V2.00 B2112,2013-06-06 07:06:00,
2013-06-06 03:11:00,63.5,58.9,29.92,ESE,110,0.0,0.0,85,0.00,,,0.00,LWC V2.00 B2112,2013-06-06 07:11:00,
2013-06-06 03:16:00,63.5,58.9,29.92,ESE,110,0.0,0.0,85,0.00,,,0.00,LWC V2.00 B2112,2013-06-06 07:16:00,
2013-06-06 03:21:00,63.5,58.9,29.92,ESE,110,0.0,0.0,85,0.00,,,0.00,LWC V2.00 B2112,2013-06-06 07:21:00,
2013-06-06 03:26:00,63.7,59.1,29.92,ESE,110,0.0,0.0,85,0.00,,,0.00,LWC V2.00 B2112,2013-06-06 07:26:00,
2013-06-06 03:31:00,63.7,59.1,29.92,ESE,110,0.0,0.0,85,0.00,,,0.00,LWC V2.00 B2112,2013-06-06 07:31:00,
2013-06-06 03:36:00,63.9,59.3,29.92,ESE,110,0.0,0.0,85,0.00,,,0.00,LWC V2.00 B2112,2013-06-06 07:36:00,
2013-06-06 03:41:00,63.9,59.3,29.92,ESE,110,0.0,0.0,85,0.00,,,0.00,LWC V2.00 B2112,2013-06-06 07:41:00,
2013-06-06 03:46:00,63.9,59.3,29.92,ESE,110,0.0,0.0,85,0.00,,,0.00,LWC V2.00 B2112,2013-06-06 07:46:00,
2013-06-06 03:51:00,64.0,59.4,29.92,ESE,110,0.0,0.0,85,0.00,,,0.00,LWC V2.00 B2112,2013-06-06 07:51:00,
2013-06-06 03:56:00,64.0,59.4,29.92,ESE,110,0.0,0.0,85,0.00,,,0.00,LWC V2.00 B2112,2013-06-06 07:56:00,
2013-06-06 04:01:00,64.2,59.6,29.92,ESE,110,0.0,0.0,85,0.00,,,0.00,LWC V2.00 B2112,2013-06-06 08:01:00,
2013-06-06 04:06:00,64.2,59.6,29.92,ESE,110,0.0,0.0,85,0.00,,,0.00,LWC V2.00 B2112,2013-06-06 08:06:00,
2013-06-06 04:11:00,64.3,59.7,29.91,ESE,110,0.0,0.0,85,0.00,,,0.00,LWC V2.00 B2112,2013-06-06 08:11:00,
2013-06-06 04:16:00,64.3,59.7,29.91,ESE,110,0.0,0.0,85,0.00,,,0.00,LWC V2.00 B2112,2013-06-06 08:16:00,
2013-06-06 04:21:00,64.3,59.7,29.91,ESE,110,0.0,0.0,85,0.00,,,0.00,LWC V2.00 B2112,2013-06-06 08:21:00,
2013-06-06 04:26:00,64.5,59.9,29.91,ESE,110,0.0,0.0,85,0.00,,,0.00,LWC V2.00 B2112,2013-06-06 08:26:00,
2013-06-06 04:31:00,64.5,59.9,29.91,ESE,110,0.0,0.0,85,0.00,,,0.00,LWC V2.00 B2112,2013-06-06 08:31:00,
2013-06-06 04:36:00,64.5,59.9,29.91,ESE,110,0.0,0.0,85,0.00,,,0.00,LWC V2.00 B2112,2013-06-06 08:36:00,
2013-06-06 04:41:00,64.5,60.2,29.91,ESE,110,0.0,0.0,86,0.00,,,0.00,LWC V2.00 B2112,2013-06-06 08:41:00,
2013-06-06 04:46:00,64.5,60.2,29.91,ESE,110,0.0,0.0,86,0.00,,,0.00,LWC V2.00 B2112,2013-06-06 08:46:00,
2013-06-06 04:51:00,64.3,60.0,29.91,ESE,110,0.0,0.0,86,0.00,,,0.00,LWC V2.00 B2112,2013-06-06 08:51:00,
2013-06-06 04:56:00,64.3,60.3,29.90,ESE,110,0.0,0.0,87,0.00,,,0.00,LWC V2.00 B2112,2013-06-06 08:56:00,
2013-06-06 05:01:00,64.3,60.3,29.90,ESE,110,0.0,0.0,87,0.00,,,0.00,LWC V2.00 B2112,2013-06-06 09:01:00,
2013-06-06 05:06:00,64.3,60.3,29.90,ESE,110,0.0,0.0,87,0.00,,,0.00,LWC V2.00 B2112,2013-06-06 09:06:00,
2013-06-06 05:11:00,64.5,60.5,29.89,ESE,110,0.0,0.0,87,0.00,,,0.00,LWC V2.00 B2112,2013-06-06 09:11:00,
2013-06-06 05:16:00,64.5,60.5,29.89,ESE,110,0.0,0.0,87,0.00,,,0.00,LWC V2.00 B2112,2013-06-06 09:16:00,
2013-06-06 05:21:00,64.5,60.5,29.89,ESE,110,0.0,0.0,87,0.00,,,0.00,LWC V2.00 B2112,2013-06-06 09:21:00,
2013-06-06 05:26:00,64.5,60.5,29.89,ESE,110,0.0,0.0,87,0.00,,,0.00,LWC V2.00 B2112,2013-06-06 09:26:00,
2013-06-06 05:31:00,64.5,60.5,29.89,ESE,110,0.0,0.0,87,0.00,,,0.00,LWC V2.00 B2112,2013-06-06 09:31:00,
2013-06-06 05:36:00,64.5,60.9,29.89,ESE,110,0.0,0.0,88,0.00,,,0.00,LWC V2.00 B2112,2013-06-06 09:36:00,
2013-06-06 05:41:00,64.5,60.9,29.89,ESE,110,0.0,0.0,88,0.00,,,0.00,LWC V2.00 B2112,2013-06-06 09:41:00,
2013-06-06 05:46:00,64.5,60.9,29.89,ESE,110,0.0,0.0,88,0.00,,,0.00,LWC V2.00 B2112,2013-06-06 09:46:00,
2013-06-06 05:56:00,64.5,61.2,29.89,ESE,110,0.0,0.0,89,0.00,,,0.00,LWC V2.00 B2112,2013-06-06 09:56:00,
2013-06-06 06:01:00,64.5,61.2,29.89,ESE,110,0.0,0.0,89,0.00,,,0.00,LWC V2.00 B2112,2013-06-06 10:01:00,
2013-06-06 06:06:00,64.5,61.2,29.89,ESE,110,0.0,0.0,89,0.00,,,0.00,LWC V2.00 B2112,2013-06-06 10:06:00,
2013-06-06 06:11:00,64.5,61.2,29.89,ESE,110,0.0,0.0,89,0.00,,,0.00,LWC V2.00 B2112,2013-06-06 10:11:00,
2013-06-06 06:16:00,64.5,61.2,29.89,ESE,110,0.0,0.0,89,0.00,,,0.00,LWC V2.00 B2112,2013-06-06 10:16:00,
2013-06-06 06:21:00,64.3,61.0,29.89,ESE,110,0.0,0.0,89,0.00,,,0.00,LWC V2.00 B2112,2013-06-06 10:21:00,
2013-06-06 06:31:00,64.3,61.3,29.88,ESE,110,0.0,0.0,90,0.00,,,0.00,LWC V2.00 B2112,2013-06-06 10:31:00,
2013-06-06 06:36:00,64.3,61.3,29.88,ESE,110,0.0,0.0,90,0.00,,,0.00,LWC V2.00 B2112,2013-06-06 10:36:00,
2013-06-06 06:41:00,64.5,61.5,29.88,ESE,110,0.0,0.0,90,0.00,,,0.00,LWC V2.00 B2112,2013-06-06 10:41:00,
2013-06-06 06:46:00,64.5,61.8,29.88,ESE,110,0.0,0.0,91,0.00,,,0.00,LWC V2.00 B2112,2013-06-06 10:46:00,
2013-06-06 06:51:00,64.5,61.8,29.88,ESE,110,0.0,0.0,91,0.00,,,0.00,LWC V2.00 B2112,2013-06-06 10:51:00,
2013-06-06 06:56:00,64.5,61.8,29.88,ESE,110,0.0,0.0,91,0.00,,,0.00,LWC V2.00 B2112,2013-06-06 10:56:00,
2013-06-06 07:06:00,64.5,61.8,29.88,ESE,110,0.0,0.0,91,0.00,,,0.00,LWC V2.00 B2112,2013-06-06 11:06:00,
2013-06-06 07:11:00,64.5,61.8,29.88,ESE,110,0.0,0.0,91,0.00,,,0.00,LWC V2.00 B2112,2013-06-06 11:11:00,
2013-06-06 07:16:00,64.7,62.0,29.88,East,99,0.0,0.0,91,0.00,,,0.00,LWC V2.00 B2112,2013-06-06 11:16:00,
2013-06-06 07:26:00,64.7,62.0,29.88,East,99,0.0,0.0,91,0.00,,,0.00,LWC V2.00 B2112,2013-06-06 11:26:00,
2013-06-06 07:31:00,64.8,62.4,29.88,East,99,0.0,0.0,92,0.00,,,0.00,LWC V2.00 B2112,2013-06-06 11:31:00,
2013-06-06 07:41:00,65.2,62.8,29.88,East,82,0.0,0.0,92,0.00,,,0.00,LWC V2.00 B2112,2013-06-06 11:41:00,
2013-06-06 07:46:00,65.2,62.8,29.88,East,82,0.0,0.0,92,0.00,,,0.00,LWC V2.00 B2112,2013-06-06 11:46:00,
2013-06-06 07:51:00,65.3,62.9,29.88,East,82,0.0,0.0,92,0.00,,,0.00,LWC V2.00 B2112,2013-06-06 11:51:00,
2013-06-06 07:56:00,65.5,63.1,29.88,East,82,0.0,0.0,92,0.00,,,0.00,LWC V2.00 B2112,2013-06-06 11:56:00,
2013-06-06 08:01:00,65.5,62.8,29.88,East,82,0.0,0.0,91,0.00,,,0.00,LWC V2.00 B2112,2013-06-06 12:01:00,
2013-06-06 08:11:00,65.6,63.2,29.88,East,82,0.0,0.0,92,0.00,,,0.00,LWC V2.00 B2112,2013-06-06 12:11:00,
2013-06-06 08:16:00,65.8,63.4,29.88,East,82,0.0,0.0,92,0.00,,,0.00,LWC V2.00 B2112,2013-06-06 12:16:00,
2013-06-06 08:21:00,66.0,63.6,29.88,East,82,0.0,0.0,92,0.00,,,0.00,LWC V2.00 B2112,2013-06-06 12:21:00,
2013-06-06 08:26:00,66.1,63.7,29.87,East,82,0.0,0.0,92,0.00,,,0.00,LWC V2.00 B2112,2013-06-06 12:26:00,
2013-06-06 08:31:00,66.3,63.9,29.87,East,82,0.0,0.0,92,0.00,,,0.00,LWC V2.00 B2112,2013-06-06 12:31:00,
2013-06-06 08:36:00,66.4,64.0,29.87,East,82,0.0,0.0,92,0.00,,,0.00,LWC V2.00 B2112,2013-06-06 12:36:00,
2013-06-06 08:41:00,66.8,64.4,29.87,East,82,0.0,0.0,92,0.00,,,0.00,LWC V2.00 B2112,2013-06-06 12:41:00,
2013-06-06 08:46:00,67.1,64.7,29.87,East,82,0.0,0.0,92,0.00,,,0.00,LWC V2.00 B2112,2013-06-06 12:46:00,
2013-06-06 08:51:00,67.6,64.9,29.87,East,93,0.0,0.0,91,0.00,,,0.00,LWC V2.00 B2112,2013-06-06 12:51:00,
2013-06-06 08:56:00,67.8,65.1,29.87,West,263,0.0,0.0,91,0.00,,,0.00,LWC V2.00 B2112,2013-06-06 12:56:00,
2013-06-06 09:01:00,68.3,65.6,29.87,WNW,301,0.0,0.0,91,0.00,,,0.00,LWC V2.00 B2112,2013-06-06 13:01:00,
2013-06-06 09:06:00,68.6,65.5,29.87,WNW,301,0.0,0.0,90,0.00,,,0.00,LWC V2.00 B2112,2013-06-06 13:06:00,
2013-06-06 09:11:00,68.8,65.4,29.87,SE,138,0.0,0.0,89,0.00,,,0.00,LWC V2.00 B2112,2013-06-06 13:11:00,
2013-06-06 09:16:00,69.1,65.7,29.87,SE,139,0.0,0.0,89,0.00,,,0.00,LWC V2.00 B2112,2013-06-06 13:16:00,
2013-06-06 09:21:00,69.3,65.6,29.87,SE,139,0.0,0.0,88,0.00,,,0.00,LWC V2.00 B2112,2013-06-06 13:21:00,
2013-06-06 09:26:00,69.6,66.2,29.87,SE,139,0.0,0.0,89,0.00,,,0.00,LWC V2.00 B2112,2013-06-06 13:26:00,
2013-06-06 09:31:00,69.8,65.7,29.87,SE,138,0.0,0.0,87,0.00,,,0.00,LWC V2.00 B2112,2013-06-06 13:31:00,
2013-06-06 09:36:00,69.9,65.8,29.87,SE,138,0.0,0.0,87,0.00,,,0.00,LWC V2.00 B2112,2013-06-06 13:36:00,
2013-06-06 09:41:00,70.3,66.6,29.87,ENE,76,0.0,0.0,88,0.00,,,0.00,LWC V2.00 B2112,2013-06-06 13:41:00,
2013-06-06 09:46:00,70.4,66.0,29.87,East,94,0.0,0.0,86,0.00,,,0.00,LWC V2.00 B2112,2013-06-06 13:46:00,
2013-06-06 09:56:00,70.8,66.4,29.86,East,95,0.0,0.0,86,0.00,,,0.00,LWC V2.00 B2112,2013-06-06 13:56:00,
2013-06-06 10:01:00,70.9,66.5,29.86,East,95,0.0,0.0,86,0.00,,,0.00,LWC V2.00 B2112,2013-06-06 14:01:00,
2013-06-06 10:11:00,71.6,66.8,29.87,East,95,0.0,0.0,85,0.00,,,0.00,LWC V2.00 B2112,2013-06-06 14:11:00,
2013-06-06 10:21:00,71.8,66.3,29.87,East,97,0.0,0.0,83,0.00,,,0.00,LWC V2.00 B2112,2013-06-06 14:21:00,
2013-06-06 10:26:00,71.6,66.2,29.86,East,98,0.0,0.0,83,0.00,,,0.00,LWC V2.00 B2112,2013-06-06 14:26:00,
2013-06-06 10:36:00,72.1,67.3,29.86,ESE,110,0.0,0.0,85,0.00,,,0.00,LWC V2.00 B2112,2013-06-06 14:36:00,
2013-06-06 10:41:00,72.1,66.6,29.86,ESE,110,0.0,0.0,83,0.00,,,0.00,LWC V2.00 B2112,2013-06-06 14:41:00,
2013-06-06 10:46:00,72.3,66.8,29.86,ESE,110,0.0,0.0,83,0.00,,,0.00,LWC V2.00 B2112,2013-06-06 14:46:00,
2013-06-06 10:51:00,72.5,67.0,29.86,ESE,110,0.0,0.0,83,0.00,,,0.00,LWC V2.00 B2112,2013-06-06 14:51:00,
2013-06-06 10:56:00,72.7,67.6,29.86,ESE,110,0.0,0.0,84,0.00,,,0.00,LWC V2.00 B2112,2013-06-06 14:56:00,
2013-06-06 11:06:00,72.7,66.9,29.86,ESE,109,0.0,0.0,82,0.00,,,0.00,LWC V2.00 B2112,2013-06-06 15:06:00,
2013-06-06 11:11:00,72.5,67.0,29.86,ESE,117,0.0,0.0,83,0.00,,,0.00,LWC V2.00 B2112,2013-06-06 15:11:00,
2013-06-06 11:16:00,72.3,67.2,29.86,ESE,117,0.0,0.0,84,0.00,,,0.00,LWC V2.00 B2112,2013-06-06 15:16:00,
2013-06-06 11:21:00,72.1,66.6,29.86,NE,49,0.0,0.0,83,0.00,,,0.00,LWC V2.00 B2112,2013-06-06 15:21:00,
2013-06-06 11:26:00,72.0,66.9,29.86,East,98,0.0,0.0,84,0.00,,,0.00,LWC V2.00 B2112,2013-06-06 15:26:00,
2013-06-06 11:31:00,72.1,67.0,29.86,East,98,0.0,0.0,84,0.00,,,0.00,LWC V2.00 B2112,2013-06-06 15:31:00,
2013-06-06 11:36:00,72.3,67.2,29.86,East,98,0.0,0.0,84,0.00,,,0.00,LWC V2.00 B2112,2013-06-06 15:36:00,
2013-06-06 11:51:00,72.7,67.6,29.86,WNW,288,0.0,0.0,84,0.00,,,0.00,LWC V2.00 B2112,2013-06-06 15:51:00,
2013-06-06 12:01:00,72.7,68.3,29.86,SE,130,0.0,0.0,86,0.00,,,0.00,LWC V2.00 B2112,2013-06-06 16:01:00,
2013-06-06 12:06:00,72.8,68.7,29.86,West,263,0.0,0.0,87,0.00,,,0.00,LWC V2.00 B2112,2013-06-06 16:06:00,
2013-06-06 12:11:00,72.8,68.4,29.86,ESE,108,0.0,0.0,86,0.00,,,0.00,LWC V2.00 B2112,2013-06-06 16:11:00,
2013-06-06 12:16:00,73.0,68.9,29.86,ESE,108,0.0,0.0,87,0.00,,,0.00,LWC V2.00 B2112,2013-06-06 16:16:00,
2013-06-06 12:21:00,72.8,68.4,29.86,West,269,0.0,0.0,86,0.00,,,0.00,LWC V2.00 B2112,2013-06-06 16:21:00,
2013-06-06 12:26:00,73.2,69.1,29.85,SW,219,0.0,0.0,87,0.00,,,0.00,LWC V2.00 B2112,2013-06-06 16:26:00,
2013-06-06 12:31:00,73.5,69.0,29.85,SW,219,0.0,0.0,86,0.00,,,0.00,LWC V2.00 B2112,2013-06-06 16:31:00,
2013-06-06 12:36:00,73.7,68.9,29.85,ESE,120,0.0,0.0,85,0.00,,,0.00,LWC V2.00 B2112,2013-06-06 16:36:00,
2013-06-06 12:41:00,74.0,68.8,29.84,ESE,120,0.0,0.0,84,0.00,,,0.00,LWC V2.00 B2112,2013-06-06 16:41:00,
2013-06-06 12:46:00,74.0,68.5,29.84,WNW,290,0.0,0.0,83,0.00,,,0.00,LWC V2.00 B2112,2013-06-06 16:46:00,
2013-06-06 12:51:00,74.0,69.2,29.84,ENE,60,0.0,0.0,85,0.00,,,0.00,LWC V2.00 B2112,2013-06-06 16:51:00,
2013-06-06 12:56:00,73.9,69.1,29.84,ESE,105,0.0,0.0,85,0.00,,,0.00,LWC V2.00 B2112,2013-06-06 16:56:00,
2013-06-06 13:06:00,74.9,69.7,29.84,ENE,69,0.0,0.0,84,0.00,,,0.00,LWC V2.00 B2112,2013-06-06 17:06:00,
2013-06-06 13:11:00,75.1,68.5,29.83,South,186,0.0,0.0,80,0.00,,,0.00,LWC V2.00 B2112,2013-06-06 17:11:00,
2013-06-06 13:16:00,74.9,69.0,29.83,SSE,147,0.0,0.0,82,0.00,,,0.00,LWC V2.00 B2112,2013-06-06 17:16:00,
2013-06-06 13:26:00,73.9,69.4,29.83,ESE,118,0.0,0.0,86,0.00,,,0.00,LWC V2.00 B2112,2013-06-06 17:26:00,
2013-06-06 13:31:00,73.7,69.9,29.83,ESE,118,0.0,0.0,88,0.00,,,0.00,LWC V2.00 B2112,2013-06-06 17:31:00,
2013-06-06 13:36:00,73.3,69.9,29.83,ESE,118,0.0,0.0,89,0.00,,,0.00,LWC V2.00 B2112,2013-06-06 17:36:00,
2013-06-06 13:41:00,73.3,69.9,29.82,ESE,108,0.0,0.0,89,0.00,,,0.00,LWC V2.00 B2112,2013-06-06 17:41:00,
2013-06-06 13:46:00,73.5,70.4,29.82,ESE,108,0.0,0.0,90,0.00,,,0.00,LWC V2.00 B2112,2013-06-06 17:46:00,
2013-06-06 13:51:00,73.7,70.6,29.82,ESE,108,0.0,0.0,90,0.00,,,0.00,LWC V2.00 B2112,2013-06-06 17:51:00,
2013-06-06 13:56:00,73.7,70.6,29.81,ESE,108,0.0,0.0,90,0.00,,,0.01,LWC V2.00 B2112,2013-06-06 17:56:00,
2013-06-06 14:01:00,73.5,70.7,29.81,ESE,108,0.0,0.0,91,0.00,,,0.01,LWC V2.00 B2112,2013-06-06 18:01:00,
2013-06-06 14:06:00,73.2,70.4,29.81,ESE,108,0.0,0.0,91,0.45,,,0.03,LWC V2.00 B2112,2013-06-06 18:06:00,
2013-06-06 14:11:00,72.7,70.2,29.81,ESE,108,0.0,0.0,92,0.65,,,0.06,LWC V2.00 B2112,2013-06-06 18:11:00,
2013-06-06 14:16:00,72.5,70.4,29.81,ESE,108,0.0,0.0,93,0.26,,,0.08,LWC V2.00 B2112,2013-06-06 18:16:00,
2013-06-06 14:21:00,72.5,71.0,29.81,ESE,108,0.0,0.0,95,0.09,,,0.08,LWC V2.00 B2112,2013-06-06 18:21:00,
2013-06-06 14:26:00,72.5,71.0,29.81,SSW,199,0.0,0.0,95,0.08,,,0.09,LWC V2.00 B2112,2013-06-06 18:26:00,
2013-06-06 14:36:00,72.1,70.6,29.81,SW,221,0.0,0.0,95,0.88,,,0.19,LWC V2.00 B2112,2013-06-06 18:36:00,
2013-06-06 14:41:00,71.8,70.3,29.81,SSW,212,0.0,0.0,95,0.60,,,0.27,LWC V2.00 B2112,2013-06-06 18:41:00,
2013-06-06 14:46:00,71.6,70.4,29.81,SSW,208,0.0,0.0,96,0.69,,,0.33,LWC V2.00 B2112,2013-06-06 18:46:00,
2013-06-06 14:51:00,71.3,70.1,29.81,SSW,208,0.0,0.0,96,0.32,,,0.36,LWC V2.00 B2112,2013-06-06 18:51:00,
2013-06-06 14:56:00,71.1,69.9,29.80,West,274,0.0,0.0,96,0.15,,,0.37,LWC V2.00 B2112,2013-06-06 18:56:00,
2013-06-06 15:06:00,71.6,70.7,29.80,WNW,289,0.0,0.0,97,0.05,,,0.37,LWC V2.00 B2112,2013-06-06 19:06:00,
2013-06-06 15:11:00,72.0,71.1,29.80,SE,139,0.0,0.0,97,0.00,,,0.37,LWC V2.00 B2112,2013-06-06 19:11:00,
2013-06-06 15:16:00,72.1,71.2,29.80,SE,139,0.0,0.0,97,0.00,,,0.37,LWC V2.00 B2112,2013-06-06 19:16:00,
2013-06-06 15:21:00,72.5,71.6,29.80,SSE,158,0.0,0.0,97,0.00,,,0.38,LWC V2.00 B2112,2013-06-06 19:21:00,
2013-06-06 15:31:00,72.8,72.2,29.78,SSE,158,0.0,0.0,98,0.00,,,0.38,LWC V2.00 B2112,2013-06-06 19:31:00,
2013-06-06 15:41:00,72.8,71.9,29.78,SSE,160,0.0,0.0,97,0.00,,,0.38,LWC V2.00 B2112,2013-06-06 19:41:00,
2013-06-06 15:46:00,72.7,71.8,29.78,North,6,0.0,0.0,97,0.00,,,0.38,LWC V2.00 B2112,2013-06-06 19:46:00,
2013-06-06 15:51:00,72.5,71.6,29.78,North,6,0.0,0.0,97,0.00,,,0.38,LWC V2.00 B2112,2013-06-06 19:51:00,
2013-06-06 15:56:00,72.5,71.6,29.77,North,4,0.0,0.0,97,0.00,,,0.38,LWC V2.00 B2112,2013-06-06 19:56:00,
2013-06-06 16:01:00,72.5,71.6,29.77,WNW,288,0.0,0.0,97,0.00,,,0.38,LWC V2.00 B2112,2013-06-06 20:01:00,
2013-06-06 16:06:00,72.5,71.6,29.77,ESE,110,0.0,0.0,97,0.00,,,0.38,LWC V2.00 B2112,2013-06-06 20:06:00,
2013-06-06 16:11:00,72.7,71.8,29.77,ESE,110,0.0,0.0,97,0.00,,,0.38,LWC V2.00 B2112,2013-06-06 20:11:00,
2013-06-06 16:16:00,72.7,71.8,29.77,WSW,253,0.0,0.0,97,0.00,,,0.38,LWC V2.00 B2112,2013-06-06 20:16:00,
2013-06-06 16:26:00,72.7,71.8,29.77,NNE,25,0.0,0.0,97,0.00,,,0.38,LWC V2.00 B2112,2013-06-06 20:26:00,
2013-06-06 16:31:00,72.8,71.9,29.77,NNW,333,0.0,0.0,97,0.00,,,0.38,LWC V2.00 B2112,2013-06-06 20:31:00,
2013-06-06 16:36:00,73.0,72.1,29.77,SSW,207,0.0,0.0,97,0.00,,,0.38,LWC V2.00 B2112,2013-06-06 20:36:00,
2013-06-06 16:41:00,73.0,72.1,29.77,NE,41,0.0,1.0,97,0.00,,,0.38,LWC V2.00 B2112,2013-06-06 20:41:00,
2013-06-06 16:46:00,73.3,72.4,29.77,NE,41,0.0,0.0,97,0.00,,,0.38,LWC V2.00 B2112,2013-06-06 20:46:00,
2013-06-06 16:51:00,73.5,72.6,29.77,NE,41,0.0,0.0,97,0.00,,,0.38,LWC V2.00 B2112,2013-06-06 20:51:00,
2013-06-06 17:01:00,73.0,71.8,29.77,WNW,287,0.0,0.0,96,0.00,,,0.38,LWC V2.00 B2112,2013-06-06 21:01:00,
2013-06-06 17:06:00,72.8,71.6,29.77,WSW,255,0.0,0.0,96,0.00,,,0.38,LWC V2.00 B2112,2013-06-06 21:06:00,
2013-06-06 17:16:00,72.7,71.5,29.77,SW,227,0.0,0.0,96,0.00,,,0.38,LWC V2.00 B2112,2013-06-06 21:16:00,
2013-06-06 17:21:00,72.5,71.3,29.77,SW,229,0.0,0.0,96,0.00,,,0.38,LWC V2.00 B2112,2013-06-06 21:21:00,
2013-06-06 17:26:00,72.5,71.3,29.77,East,101,0.0,0.0,96,0.00,,,0.38,LWC V2.00 B2112,2013-06-06 21:26:00,
2013-06-06 17:31:00,72.5,71.3,29.77,ESE,104,0.0,0.0,96,0.00,,,0.38,LWC V2.00 B2112,2013-06-06 21:31:00,
2013-06-06 17:36:00,72.7,71.5,29.77,ESE,104,0.0,0.0,96,0.00,,,0.38,LWC V2.00 B2112,2013-06-06 21:36:00,
2013-06-06 17:41:00,72.5,71.3,29.76,SW,227,0.0,1.0,96,0.00,,,0.38,LWC V2.00 B2112,2013-06-06 21:41:00,
2013-06-06 17:46:00,72.5,71.6,29.76,SSW,212,0.0,0.0,97,0.00,,,0.38,LWC V2.00 B2112,2013-06-06 21:46:00,
2013-06-06 17:51:00,72.5,71.6,29.76,SSE,148,0.0,0.0,97,0.00,,,0.38,LWC V2.00 B2112,2013-06-06 21:51:00,
2013-06-06 17:56:00,72.5,71.6,29.76,NNE,27,0.0,0.0,97,0.00,,,0.38,LWC V2.00 B2112,2013-06-06 21:56:00,
2013-06-06 18:01:00,72.3,71.4,29.76,SE,126,0.0,0.0,97,0.00,,,0.38,LWC V2.00 B2112,2013-06-06 22:01:00,
2013-06-06 18:06:00,72.3,71.4,29.76,SSW,197,0.0,0.0,97,0.00,,,0.39,LWC V2.00 B2112,2013-06-06 22:06:00,
2013-06-06 18:11:00,72.3,71.4,29.75,West,278,0.0,0.0,97,0.00,,,0.39,LWC V2.00 B2112,2013-06-06 22:11:00,
2013-06-06 18:16:00,72.3,71.4,29.75,West,280,0.0,0.0,97,0.08,,,0.40,LWC V2.00 B2112,2013-06-06 22:16:00,
2013-06-06 18:21:00,72.3,71.4,29.75,West,277,0.0,0.0,97,0.07,,,0.41,LWC V2.00 B2112,2013-06-06 22:21:00,
2013-06-06 18:26:00,72.1,71.2,29.75,SSE,150,0.0,0.0,97,0.21,,,0.42,LWC V2.00 B2112,2013-06-06 22:26:00,
2013-06-06 18:36:00,71.8,70.9,29.75,SW,225,0.0,0.0,97,0.07,,,0.43,LWC V2.00 B2112,2013-06-06 22:36:00,
2013-06-06 18:41:00,71.6,70.7,29.76,SW,214,0.0,0.0,97,0.10,,,0.44,LWC V2.00 B2112,2013-06-06 22:41:00,
2013-06-06 18:46:00,71.6,70.7,29.76,SW,214,0.0,0.0,97,0.33,,,0.46,LWC V2.00 B2112,2013-06-06 22:46:00,
2013-06-06 18:51:00,71.5,70.6,29.76,SW,214,0.0,0.0,97,0.24,,,0.48,LWC V2.00 B2112,2013-06-06 22:51:00,
2013-06-06 18:56:00,71.5,70.6,29.76,SW,214,0.0,0.0,97,1.11,,,0.52,LWC V2.00 B2112,2013-06-06 22:56:00,
2013-06-06 19:01:00,71.3,70.7,29.76,SSW,199,0.0,0.0,98,0.46,,,0.56,LWC V2.00 B2112,2013-06-06 23:01:00,
2013-06-06 19:06:00,71.3,70.7,29.76,SW,226,0.0,0.0,98,0.19,,,0.57,LWC V2.00 B2112,2013-06-06 23:06:00,
2013-06-06 19:11:00,71.3,70.7,29.76,NNW,327,0.0,4.0,98,0.06,,,0.57,LWC V2.00 B2112,2013-06-06 23:11:00,
2013-06-06 19:16:00,71.3,70.7,29.76,SW,236,0.0,0.0,98,0.04,,,0.57,LWC V2.00 B2112,2013-06-06 23:16:00,
2013-06-06 19:21:00,71.3,70.7,29.76,South,170,0.0,0.0,98,0.00,,,0.57,LWC V2.00 B2112,2013-06-06 23:21:00,
2013-06-06 19:31:00,71.1,70.5,29.76,SSW,200,0.0,0.0,98,0.00,,,0.57,LWC V2.00 B2112,2013-06-06 23:31:00,
2013-06-06 19:36:00,71.1,70.5,29.76,SE,141,0.0,0.0,98,0.00,,,0.57,LWC V2.00 B2112,2013-06-06 23:36:00,
2013-06-06 19:41:00,71.1,70.5,29.76,SW,226,0.0,0.0,98,0.00,,,0.57,LWC V2.00 B2112,2013-06-06 23:41:00,
2013-06-06 19:46:00,71.1,70.5,29.76,SE,131,0.0,0.0,98,0.00,,,0.57,LWC V2.00 B2112,2013-06-06 23:46:00,
2013-06-06 19:51:00,71.1,70.5,29.76,SW,226,0.0,0.0,98,0.00,,,0.57,LWC V2.00 B2112,2013-06-06 23:51:00,
2013-06-06 19:56:00,70.9,70.3,29.76,SW,217,0.0,0.0,98,0.00,,,0.57,LWC V2.00 B2112,2013-06-06 23:56:00,
2013-06-06 20:01:00,70.9,70.3,29.76,SE,131,0.0,0.0,98,0.00,,,0.57,LWC V2.00 B2112,2013-06-07 00:01:00,
2013-06-06 20:06:00,70.9,70.3,29.76,SSW,200,0.0,0.0,98,0.00,,,0.57,LWC V2.00 B2112,2013-06-07 00:06:00,
2013-06-06 20:11:00,70.9,70.3,29.76,SSE,155,0.0,0.0,98,0.00,,,0.57,LWC V2.00 B2112,2013-06-07 00:11:00,
2013-06-06 20:16:00,70.8,70.2,29.76,SW,219,0.0,0.0,98,0.00,,,0.57,LWC V2.00 B2112,2013-06-07 00:16:00,
2013-06-06 20:21:00,70.8,70.2,29.76,West,262,0.0,0.0,98,0.00,,,0.57,LWC V2.00 B2112,2013-06-07 00:21:00,
2013-06-06 20:26:00,70.8,70.2,29.76,SW,235,0.0,0.0,98,0.00,,,0.57,LWC V2.00 B2112,2013-06-07 00:26:00,
2013-06-06 20:31:00,70.8,70.2,29.76,SSW,198,0.0,0.0,98,0.00,,,0.57,LWC V2.00 B2112,2013-06-07 00:31:00,
2013-06-06 20:36:00,70.8,70.2,29.76,SW,219,0.0,1.0,98,0.00,,,0.57,LWC V2.00 B2112,2013-06-07 00:36:00,
2013-06-06 20:46:00,70.8,70.2,29.76,SSW,203,0.0,0.0,98,0.00,,,0.57,LWC V2.00 B2112,2013-06-07 00:46:00,
2013-06-06 20:51:00,70.6,70.0,29.76,SE,135,0.0,5.0,98,0.00,,,0.57,LWC V2.00 B2112,2013-06-07 00:51:00,
2013-06-06 20:56:00,70.6,70.0,29.76,SW,223,0.0,0.0,98,0.00,,,0.57,LWC V2.00 B2112,2013-06-07 00:56:00,
2013-06-06 21:01:00,70.4,69.8,29.76,WSW,238,0.0,0.0,98,0.00,,,0.57,LWC V2.00 B2112,2013-06-07 01:01:00,
2013-06-06 21:06:00,70.4,69.8,29.76,SSE,153,0.0,5.0,98,0.00,,,0.57,LWC V2.00 B2112,2013-06-07 01:06:00,
2013-06-06 21:11:00,70.3,69.7,29.77,SW,231,0.0,0.0,98,0.00,,,0.57,LWC V2.00 B2112,2013-06-07 01:11:00,
2013-06-06 21:16:00,70.3,69.7,29.77,SSW,193,0.0,0.0,98,0.00,,,0.57,LWC V2.00 B2112,2013-06-07 01:16:00,
2013-06-06 21:21:00,70.1,69.5,29.77,WSW,240,0.0,0.0,98,0.00,,,0.57,LWC V2.00 B2112,2013-06-07 01:21:00,
2013-06-06 21:26:00,70.1,69.5,29.77,SSE,163,0.0,0.0,98,0.00,,,0.57,LWC V2.00 B2112,2013-06-07 01:26:00,
2013-06-06 21:36:00,69.9,69.3,29.77,WSW,241,0.0,0.0,98,0.00,,,0.57,LWC V2.00 B2112,2013-06-07 01:36:00,
2013-06-06 21:41:00,69.9,69.3,29.78,SW,229,0.0,5.0,98,0.00,,,0.58,LWC V2.00 B2112,2013-06-07 01:41:00,
2013-06-06 21:46:00,69.9,69.3,29.78,SE,131,0.0,0.0,98,0.00,,,0.58,LWC V2.00 B2112,2013-06-07 01:46:00,
2013-06-06 21:51:00,69.9,69.3,29.78,South,191,0.0,0.0,98,0.00,,,0.58,LWC V2.00 B2112,2013-06-07 01:51:00,
2013-06-06 21:56:00,69.8,69.2,29.78,SSE,168,0.0,0.0,98,0.00,,,0.58,LWC V2.00 B2112,2013-06-07 01:56:00,
2013-06-06 22:06:00,69.8,69.2,29.78,South,173,0.0,0.0,98,0.00,,,0.58,LWC V2.00 B2112,2013-06-07 02:06:00,
2013-06-06 22:11:00,69.8,69.2,29.78,WSW,246,0.0,0.0,98,0.00,,,0.58,LWC V2.00 B2112,2013-06-07 02:11:00,
2013-06-06 22:16:00,69.6,69.0,29.78,SSE,154,0.0,0.0,98,0.00,,,0.58,LWC V2.00 B2112,2013-06-07 02:16:00,
2013-06-06 22:21:00,69.6,69.0,29.78,SSE,154,0.0,0.0,98,0.00,,,0.58,LWC V2.00 B2112,2013-06-07 02:21:00,
2013-06-06 22:26:00,69.6,69.0,29.79,South,187,0.0,0.0,98,0.00,,,0.58,LWC V2.00 B2112,2013-06-07 02:26:00,
2013-06-06 22:31:00,69.6,69.0,29.79,SSE,152,0.0,0.0,98,0.00,,,0.58,LWC V2.00 B2112,2013-06-07 02:31:00,
2013-06-06 22:36:00,69.4,68.8,29.79,SSE,152,0.0,0.0,98,0.00,,,0.58,LWC V2.00 B2112,2013-06-07 02:36:00,
2013-06-06 22:41:00,69.4,68.8,29.79,SSE,152,0.0,0.0,98,0.00,,,0.58,LWC V2.00 B2112,2013-06-07 02:41:00,
2013-06-06 22:46:00,69.3,68.7,29.79,SSE,153,0.0,0.0,98,0.00,,,0.58,LWC V2.00 B2112,2013-06-07 02:46:00,
2013-06-06 22:51:00,69.3,68.7,29.79,SSE,148,0.0,0.0,98,0.00,,,0.58,LWC V2.00 B2112,2013-06-07 02:51:00,
2013-06-06 22:56:00,69.3,68.7,29.79,South,172,0.0,0.0,98,0.00,,,0.58,LWC V2.00 B2112,2013-06-07 02:56:00,
2013-06-06 23:01:00,69.1,68.5,29.79,SE,144,0.0,0.0,98,0.00,,,0.58,LWC V2.00 B2112,2013-06-07 03:01:00,
2013-06-06 23:11:00,69.1,68.5,29.79,SW,236,0.0,0.0,98,0.00,,,0.58,LWC V2.00 B2112,2013-06-07 03:11:00,
2013-06-06 23:16:00,69.1,68.5,29.79,SW,236,0.0,0.0,98,0.00,,,0.58,LWC V2.00 B2112,2013-06-07 03:16:00,
2013-06-06 23:21:00,68.9,68.3,29.79,SW,236,0.0,0.0,98,0.00,,,0.58,LWC V2.00 B2112,2013-06-07 03:21:00,
2013-06-06 23:31:00,68.9,68.3,29.79,SW,236,0.0,0.0,98,0.00,,,0.58,LWC V2.00 B2112,2013-06-07 03:31:00,
2013-06-06 23:41:00,68.9,68.3,29.78,SW,236,0.0,0.0,98,0.00,,,0.59,LWC V2.00 B2112,2013-06-07 03:41:00,
2013-06-06 23:46:00,68.9,68.3,29.78,SW,236,0.0,0.0,98,0.00,,,0.59,LWC V2.00 B2112,2013-06-07 03:46:00,
2013-06-06 23:51:00,68.9,68.6,29.78,SW,236,0.0,0.0,99,0.00,,,0.59,LWC V2.00 B2112,2013-06-07 03:51:00,